Location: Sternwarte Hubelmatt
(47.0367°N, 8.3053°E)
Time: 03:49:22
(UTC+02:00)

ISS - Visible Passes

Search period start: 16 April 2026 00:00
Search period end: 26 April 2026 00:00
Orbit: 415 x 424 km, 51.6° (Epoch: 15 April)

Date Brightness Start Highest point End Pass type
(mag) Time Alt. Az. Time Alt. Az. Time Alt. Az.
18 Apr -1.1 05:26:08 10° SSE 05:27:45 13° SE 05:29:21 10° ESE visible
20 Apr -2.3 05:26:37 11° SSW 05:29:23 30° SE 05:32:23 10° E visible
21 Apr -1.8 04:41:05 18° SSE 04:42:06 20° SE 04:44:39 10° E visible
22 Apr -1.1 03:55:29 12° ESE 03:55:29 12° ESE 03:56:29 10° ESE visible
22 Apr -3.7 05:28:26 15° SW 05:31:09 72° SSE 05:34:32 10° ENE visible
23 Apr -3.2 04:42:45 34° SSW 04:43:46 47° SE 04:47:01 10° ENE visible
24 Apr -2.3 03:57:01 28° ESE 03:57:01 28° ESE 03:59:25 10° ENE visible
24 Apr -3.4 05:29:58 11° W 05:33:05 59° NNW 05:36:26 10° ENE visible
25 Apr -0.9 03:11:14 12° E 03:11:14 12° E 03:11:38 10° E visible
25 Apr -3.8 04:44:11 33° WSW 04:45:34 80° NNW 04:48:57 10° ENE visible
